カタログに戻る

OCO 2

運用中科学SSO
NORAD 40059·PAYLOAD·🇺🇸 United States

打ち上げ Jul 2, 2014 から Vandenberg Space Force Base

Loading…

次のパス (今後24時間)

TLE

最新Source: Space-Track

元期: Sep 14, 2026, 13:30 UTC

1 40059U 14035A   26257.56266008  .00000285  00000-0  73305-4 0  9993
2 40059  98.2066 197.5120 0001650  78.8763 281.2621 14.57089533649069

AllMySatでOCO 2をリアルタイム追跡

Download on the App Store